TimePDT,TemperatureF,Dew PointF,Humidity,Sea Level PressureIn,VisibilityMPH,Wind Direction,Wind SpeedMPH,Gust SpeedMPH,PrecipitationIn,Events,Conditions,WindDirDegrees,DateUTC
12:10 AM,66.2,48.2,52,29.98,10.0,Calm,Calm,-,N/A,,Clear,0,2013-09-13 07:10:00
12:30 AM,66.2,48.2,52,29.98,10.0,West,3.5,-,N/A,,Clear,270,2013-09-13 07:30:00
12:50 AM,64.4,48.2,56,29.98,10.0,Calm,Calm,-,N/A,,Clear,0,2013-09-13 07:50:00
1:10 AM,64.4,48.2,56,29.98,10.0,Calm,Calm,-,N/A,,Clear,0,2013-09-13 08:10:00
1:30 AM,62.6,48.2,59,29.98,10.0,Calm,Calm,-,N/A,,Clear,0,2013-09-13 08:30:00
1:50 AM,62.6,48.2,59,29.98,10.0,Calm,Calm,-,N/A,,Clear,0,2013-09-13 08:50:00
2:10 AM,62.6,48.2,59,29.99,10.0,WNW,5.8,-,N/A,,Clear,290,2013-09-13 09:10:00
2:30 AM,62.6,48.2,59,29.98,10.0,Calm,Calm,-,N/A,,Clear,0,2013-09-13 09:30:00
2:50 AM,60.8,48.2,63,29.98,10.0,West,4.6,-,N/A,,Clear,260,2013-09-13 09:50:00
3:10 AM,60.8,48.2,63,29.97,10.0,Calm,Calm,-,N/A,,Clear,0,2013-09-13 10:10:00
3:30 AM,59.0,48.2,67,29.97,10.0,West,3.5,-,N/A,,Clear,260,2013-09-13 10:30:00
3:50 AM,59.0,48.2,67,29.97,10.0,West,4.6,-,N/A,,Clear,260,2013-09-13 10:50:00
4:10 AM,59.0,48.2,67,29.97,10.0,Calm,Calm,-,N/A,,Clear,0,2013-09-13 11:10:00
4:30 AM,59.0,48.2,67,29.97,10.0,Calm,Calm,-,N/A,,Clear,0,2013-09-13 11:30:00
4:50 AM,59.0,48.2,67,29.97,10.0,Calm,Calm,-,N/A,,Clear,0,2013-09-13 11:50:00
5:10 AM,57.2,48.2,72,29.97,10.0,West,3.5,-,N/A,,Clear,280,2013-09-13 12:10:00
5:30 AM,57.2,48.2,72,29.97,10.0,Calm,Calm,-,N/A,,Clear,0,2013-09-13 12:30:00
5:50 AM,57.2,48.2,72,29.97,10.0,Calm,Calm,-,N/A,,Clear,0,2013-09-13 12:50:00
6:10 AM,57.2,48.2,72,29.97,10.0,Calm,Calm,-,N/A,,Clear,0,2013-09-13 13:10:00
6:30 AM,57.2,48.2,72,29.98,10.0,Calm,Calm,-,N/A,,Clear,0,2013-09-13 13:30:00
6:50 AM,55.4,46.4,72,29.98,10.0,Calm,Calm,-,N/A,,Clear,0,2013-09-13 13:50:00
7:10 AM,55.4,48.2,77,29.98,10.0,Calm,Calm,-,N/A,,Clear,0,2013-09-13 14:10:00
7:30 AM,57.2,48.2,72,29.98,10.0,Calm,Calm,-,N/A,,Clear,0,2013-09-13 14:30:00
7:50 AM,59.0,48.2,67,29.98,10.0,Calm,Calm,-,N/A,,Clear,0,2013-09-13 14:50:00
8:10 AM,62.6,48.2,59,29.98,10.0,Calm,Calm,-,N/A,,Clear,0,2013-09-13 15:10:00
8:30 AM,62.6,50.0,63,29.98,10.0,Calm,Calm,-,N/A,,Clear,0,2013-09-13 15:30:00
8:50 AM,64.4,50.0,59,29.98,10.0,Calm,Calm,-,N/A,,Clear,0,2013-09-13 15:50:00
9:10 AM,66.2,50.0,56,29.97,10.0,Calm,Calm,-,N/A,,Clear,0,2013-09-13 16:10:00
9:30 AM,68.0,50.0,52,29.97,10.0,Calm,Calm,-,N/A,,Clear,0,2013-09-13 16:30:00
9:50 AM,68.0,50.0,52,29.97,10.0,Calm,Calm,-,N/A,,Clear,0,2013-09-13 16:50:00
10:10 AM,71.6,50.0,46,29.96,3.0,Calm,Calm,-,N/A,,Clear,0,2013-09-13 17:10:00
10:30 AM,73.4,50.0,44,29.95,10.0,East,3.5,-,N/A,,Clear,100,2013-09-13 17:30:00
10:50 AM,73.4,50.0,44,29.94,10.0,SSE,4.6,-,N/A,,Clear,160,2013-09-13 17:50:00
11:10 AM,75.2,50.0,41,29.94,10.0,SE,3.5,-,N/A,,Clear,140,2013-09-13 18:10:00
11:30 AM,77.0,50.0,39,29.93,10.0,SE,3.5,-,N/A,,Clear,140,2013-09-13 18:30:00
11:50 AM,80.6,50.0,34,29.92,10.0,ENE,3.5,-,N/A,,Clear,70,2013-09-13 18:50:00
12:10 PM,80.6,51.8,37,29.90,10.0,SE,3.5,-,N/A,,Clear,130,2013-09-13 19:10:00
12:30 PM,84.2,50.0,30,29.89,10.0,SE,3.5,-,N/A,,Clear,140,2013-09-13 19:30:00
12:50 PM,86.0,50.0,29,29.88,10.0,East,3.5,-,N/A,,Clear,80,2013-09-13 19:50:00
1:10 PM,86.0,50.0,29,29.88,10.0,ESE,4.6,-,N/A,,Clear,110,2013-09-13 20:10:00
1:30 PM,89.6,50.0,26,29.87,10.0,SSE,4.6,-,N/A,,Clear,150,2013-09-13 20:30:00
1:50 PM,89.6,50.0,26,29.85,10.0,SSE,6.9,-,N/A,,Clear,150,2013-09-13 20:50:00
2:10 PM,93.2,46.4,20,29.84,10.0,SSE,11.5,-,N/A,,Clear,160,2013-09-13 21:10:00
2:30 PM,93.2,44.6,19,29.84,10.0,SSE,10.4,-,N/A,,Clear,160,2013-09-13 21:30:00
2:50 PM,93.2,46.4,20,29.82,10.0,SSE,9.2,-,N/A,,Clear,150,2013-09-13 21:50:00
3:10 PM,95.0,46.4,19,29.82,10.0,SSE,8.1,-,N/A,,Clear,150,2013-09-13 22:10:00
3:30 PM,95.0,42.8,16,29.81,10.0,South,8.1,-,N/A,,Clear,170,2013-09-13 22:30:00
3:50 PM,95.0,39.2,14,29.80,10.0,SSE,9.2,-,N/A,,Clear,160,2013-09-13 22:50:00
4:10 PM,95.0,37.4,13,29.79,10.0,SSE,9.2,-,N/A,,Clear,150,2013-09-13 23:10:00
4:30 PM,95.0,37.4,13,29.79,10.0,SSE,8.1,-,N/A,,Clear,160,2013-09-13 23:30:00
4:50 PM,95.0,37.4,13,29.78,10.0,South,12.7,-,N/A,,Clear,180,2013-09-13 23:50:00
5:10 PM,95.0,37.4,13,29.78,10.0,South,11.5,-,N/A,,Clear,170,2013-09-14 00:10:00
5:30 PM,95.0,37.4,13,29.78,10.0,South,11.5,-,N/A,,Clear,170,2013-09-14 00:30:00
5:50 PM,93.2,37.4,14,29.77,10.0,South,10.4,17.3,N/A,,Clear,170,2013-09-14 00:50:00
6:10 PM,93.2,37.4,14,29.77,10.0,SSW,9.2,-,N/A,,Clear,200,2013-09-14 01:10:00
6:30 PM,91.4,37.4,15,29.77,10.0,South,4.6,-,N/A,,Partly Cloudy,170,2013-09-14 01:30:00
6:50 PM,89.6,39.2,17,29.78,10.0,Calm,Calm,-,N/A,,Partly Cloudy,0,2013-09-14 01:50:00
7:10 PM,82.4,42.8,25,29.78,10.0,WSW,3.5,-,N/A,,Clear,240,2013-09-14 02:10:00
7:30 PM,80.6,44.6,28,29.79,10.0,WNW,4.6,-,N/A,,Clear,300,2013-09-14 02:30:00
7:50 PM,78.8,44.6,30,29.80,10.0,WNW,4.6,-,N/A,,Clear,290,2013-09-14 02:50:00
8:10 PM,77.0,44.6,32,29.80,10.0,Calm,Calm,-,N/A,,Clear,0,2013-09-14 03:10:00
8:30 PM,77.0,42.8,29,29.82,10.0,West,4.6,-,N/A,,Partly Cloudy,260,2013-09-14 03:30:00
8:50 PM,77.0,41.0,28,29.82,10.0,WNW,5.8,-,N/A,,Mostly Cloudy,290,2013-09-14 03:50:00
9:10 PM,75.2,42.8,31,29.83,10.0,West,4.6,-,N/A,,Overcast,270,2013-09-14 04:10:00
9:30 PM,73.4,42.8,33,29.84,10.0,WNW,3.5,-,N/A,,Overcast,300,2013-09-14 04:30:00
9:50 PM,73.4,41.0,31,29.84,10.0,West,5.8,-,N/A,,Scattered Clouds,270,2013-09-14 04:50:00
10:10 PM,71.6,41.0,33,29.84,10.0,West,5.8,-,N/A,,Clear,260,2013-09-14 05:10:00
10:30 PM,69.8,41.0,35,29.85,10.0,West,3.5,-,N/A,,Clear,260,2013-09-14 05:30:00
10:50 PM,68.0,41.0,37,29.85,10.0,West,3.5,-,N/A,,Clear,260,2013-09-14 05:50:00
11:10 PM,66.2,41.0,40,29.86,10.0,West,5.8,-,N/A,,Clear,270,2013-09-14 06:10:00
11:30 PM,66.2,41.0,40,29.86,10.0,West,3.5,-,N/A,,Clear,270,2013-09-14 06:30:00
11:50 PM,66.2,41.0,40,29.86,10.0,West,4.6,-,N/A,,Clear,280,2013-09-14 06:50:00